Regional Weather Roundup
Issued by NWS Sterling, VA

Home | Current Version | Previous Version | Graphics & Text | Print | Product List | Glossary On
Versions: 1 2 3 4 5 6 7 8 9 10 11 12 13 14 15 16 17 18 19 20 21 22 23 24 25 26 27 28 29 30 31 32 33 34 35 36 37 38 39 40 41 42 43 44 45 46 47 48 49 50
116
ASUS41 KLWX 242311
RWRLWX

REGIONAL WEATHER ROUNDUP
NATIONAL WEATHER SERVICE BALTIMORE MD/WASHINGTON DC
700 PM EDT WED MAY 24 2017

Note: "FAIR" indicates few or no clouds below 12,000 feet
with no significant weather and/or obstructions to visibility.
 TC=TEMPERATURE CELSIUS

 * =Non NWS site. Station does not report precipitation (e.g. rain,
    snow, etc.), thunder, or fog.

DCZ001-MDZ009-015-VAZ040>042-051-053>054-250000-
WASHINGTON METRO

CITY           SKY/WX    TMP DP  RH WIND       PRES   REMARKS
WASHINGTON NAT CLOUDY    65  58  78 SE13      29.71F
DULLES         CLOUDY    62  55  77 SE10      29.70F
ANDREWS AFB    CLOUDY    63  57  80 E7        29.71S
FT BELVOIR     CLOUDY    63  57  80 SE5       29.70F
QUANTICO       CLOUDY    64  60  87 E12       29.71S
COLLEGE PARK*  CLOUDY    64  56  77 SE5       29.71S
LEESBURG*      CLOUDY    63  61  94 E5        29.71S
MANASSAS*      CLOUDY    62  58  86 E8        29.70F
GAITHERSBURG*  CLOUDY    62  56  80 E8        29.72F

$$

MDZ006>007-011-014-250000-
BALTIMORE METRO

CITY           SKY/WX    TMP DP  RH WIND       PRES   REMARKS
BWI AIRPORT    CLOUDY    65  56  72 SE12G21   29.72S
MD SCIENCE CTR   N/A     67  57  70 MISG      29.73S
MARTIN STATE   CLOUDY    66  59  77 E7        29.75S
ANNAPOLIS      CLOUDY    66  59  78 SE20      29.74R
FORT MEADE*    CLOUDY    63  55  77 SE9       29.75S

$$

MDZ012-015-019>023-250000-
MARYLAND EASTERN SHORE

CITY           SKY/WX    TMP DP  RH WIND       PRES   REMARKS
OCEAN CITY     CLOUDY    58  54  86 E12       29.79R
SALISBURY      CLOUDY    59  55  87 E12       29.76S
BAY BRIDGE AP* CLOUDY    64  55  72 SE15G21   29.74R
CAMBRIDGE*     CLOUDY    61  55  82 E9        29.74F
EASTON*        PTSUNNY   63  54  72 SE9G18    29.79R

$$

MDZ017>025-250000-
SOUTHERN MARYLAND

CITY           SKY/WX    TMP DP  RH WIND       PRES   REMARKS
PATUXENT RIVER CLOUDY    62  60  93 E14       29.71F
ST INIGOES     CLOUDY    63  58  83 E10       29.70F
LEONARDTOWN*   CLOUDY    61  55  82 E8        29.73F

$$

MDZ003>005-250000-
NORTH CENTRAL MARYLAND

CITY           SKY/WX    TMP DP  RH WIND       PRES   REMARKS
FREDERICK*     CLOUDY    64  59  82 SE5       29.74S
HAGERSTOWN APT CLOUDY    63  55  75 SE8       29.70S
WESTMINSTER*   CLOUDY    64  57  77 SE7       29.73S

$$

MDZ501>502-250000-
WESTERN MARYLAND

CITY           SKY/WX    TMP DP  RH WIND       PRES   REMARKS
OAKLAND*       FOG       50  50 100 SE15G25   29.65R VSB 1/4
CUMBERLAND*    CLOUDY    61  55  82 SE3       29.71S

$$

VAZ025>031-250000-
SHENANDOAH VALLEY

CITY           SKY/WX    TMP DP  RH WIND       PRES   REMARKS
WINCHESTER*    CLOUDY    57  55  94 E8        29.69S FOG
FRONT ROYAL*   CLOUDY    59  59 100 E3        29.67S
LURAY*         CLOUDY    63  57  82 NE8       29.65S
NEW MARKET*    CLOUDY    59  57  91 N3        29.64F
STAUNTON*      RAIN      60  56  87 E5        29.65F
WAYNESBORO*    CLOUDY    58  58 100 E7        29.64S

$$

WVZ021-048>050-054>055-250000-
EASTERN WEST VIRGINIA PANHANDLE

CITY           SKY/WX    TMP DP  RH WIND       PRES   REMARKS
MARTINSBURG    CLOUDY    61  55  81 E6        29.69R
PETERSBURG*    CLOUDY    60  60  97 CALM      29.65S

$$

VAZ036>039-050-250000-
CENTRAL FOOTHILLS

CITY           SKY/WX    TMP DP  RH WIND       PRES   REMARKS
CHARLOTTESVILL LGT RAIN  62  60  93 E6        29.65F FOG
CULPEPER*      LGT RAIN  62  60  95 SE3       29.69F
ORANGE*        CLOUDY    61  59  94 SE5       29.67S
GORDONSVILLE*  CLOUDY    60  60  99 MISG      29.66F FOG
WARRENTON*     CLOUDY    62  57  84 E7        29.67F

$$

VAZ055>057-250000-
NORTH AND CENTRAL PIEDMONT

CITY           SKY/WX    TMP DP  RH WIND       PRES   REMARKS
FREDERICKSBRG* CLOUDY    63  60  90 E8        29.69S
STAFFORD*      CLOUDY    62  60  96 E12       29.73F

$$

NCZ024-NYZ072-PAZ021-071-VAZ022-071-250000-
OTHER REGIONAL OBSERVATIONS

CITY           SKY/WX    TMP DP  RH WIND       PRES   REMARKS
NEW YORK CITY  CLOUDY    64  53  67 CALM      29.80S
PHILADELPHIA   CLOUDY    66  50  56 E13       29.75F
PITTSBURGH     LGT RAIN  62  57  83 SE14G23   29.56R
ROANOKE        HVY RAIN  60  60 100 CALM      29.59F FOG
RICHMOND       CLOUDY    63  60  90 E12       29.68F
RALEIGH        CLOUDY    70  67  90 S6        29.59F

$$

ANZ530>537-250000-
MARINE OBSERVATIONS

STATION/POSITION TIME  TEMP    WIND        PRES
                       AIR SEA DIR/SP/G
                 (UTC) (F)     (DEG/KT/KT) (MB)
THOMAS PT LIGHT  2300   63 65  120/ 16/ 17   N/A
BALT KEY BRIDGE  2236   65     120/  8/  8 1006.5F
COVE POINT       2236   62     130/ 13/ 17 1007.2F
LEWISETTA        2236   64 67  110/ 15/ 17 1005.8F
SOLOMONS ISLAND  2236   63 66  110/ 13/ 15   N/A
PINEY POINT      2236          120/ 17/ 18   N/A

$$





USA.gov is the U.S. government's official web portal to all federal, state and local government web resources and services.